E9109 Weather Reports


Display with metric or nautical units.
time (UTC)temp
F
wind
direction
speed
MPH
gust
MPH
rain 1hr
in
rain 24hr
in
rain mn
in
humidity
%
barometer
mb
20260831044007 64 146 0.0 0.0 0.00 0.00 0.00 61 1015.4
20260831042958 64 150 0.0 0.0 0.00 0.00 0.00 60 1015.4
20260831041929 65 149 0.0 2.0 0.00 0.00 0.00 60 1015.3
20260831035814 65 150 0.0 0.0 0.00 0.00 0.00 59 1015.4
20260831034835 66 137 0.0 3.0 0.00 0.00 0.00 58 1015.3
20260831033812 66 146 1.0 6.0 0.00 0.00 0.00 58 1015.2
20260831032756 66 143 1.0 7.0 0.00 0.00 0.00 58 1015.1
20260831031753 66 139 1.0 7.0 0.00 0.00 0.00 58 1015.0
20260831030719 66 141 1.0 6.0 0.00 0.00 0.00 57 1015.0
20260831025709 66 144 1.0 6.0 0.00 0.00 0.00 57 1015.0
20260831024646 67 146 1.0 6.0 0.00 0.00 0.00 57 1015.0
20260831022501 68 139 1.0 5.0 0.00 0.00 0.00 56 1015.1
20260831021522 68 139 0.0 8.0 0.00 0.00 0.00 54 1015.2
20260831020545 69 129 1.0 8.0 0.00 0.00 0.00 53 1015.1
20260831012151 73 152 0.0 5.0 0.00 0.00 0.00 46 1015.3
20260831011138 73 140 1.0 0.0 0.00 0.00 0.00 46 1015.3
20260831010123 74 131 0.0 5.0 0.00 0.00 0.00 44 1015.4
20260831005108 74 139 0.0 2.0 0.00 0.00 0.00 44 1015.5
20260831004049 74 141 1.0 9.0 0.00 0.00 0.00 43 1015.5
20260831003029 75 146 0.0 4.0 0.00 0.00 0.00 43 1015.5
20260831002028 74 141 0.0 6.0 0.00 0.00 0.00 43 1015.7
20260831001015 74 127 2.0 9.0 0.00 0.00 0.00 43 1015.6
20260831000020 75 131 1.0 10.0 0.00 0.00 0.00 42 1015.6
20260830234958 75 132 1.0 10.0 0.00 0.00 0.00 43 1015.7
20260830232924 74 148 2.0 10.0 0.00 0.00 0.00 43 1015.9
20260830231859 74 153 2.0 10.0 0.00 0.00 0.00 44 1016.1
20260830230916 74 129 3.0 10.0 0.00 0.00 0.00 44 1016.1
20260830225855 74 122 3.0 9.0 0.00 0.00 0.00 44 1016.1
20260830224911 74 127 2.0 8.0 0.00 0.00 0.00 43 1016.3
20260830223910 74 150 2.0 8.0 0.00 0.00 0.00 42 1016.5
20260830222930 73 127 2.0 12.0 0.00 0.00 0.00 43 1016.5
20260830221938 73 158 4.0 12.0 0.00 0.00 0.00 42 1016.7
20260830220958 73 129 4.0 10.0 0.00 0.00 0.00 43 1016.8
20260830220009 73 155 4.0 10.0 0.00 0.00 0.00 44 1017.0
20260830214940 74 143 2.0 12.0 0.00 0.00 0.00 44 1017.1
20260830213929 73 143 3.0 12.0 0.00 0.00 0.00 43 1017.2
20260830211806 73 129 3.0 11.0 0.00 0.00 0.00 43 1017.5
20260830210800 72 120 4.0 11.0 0.00 0.00 0.00 44 1017.5
20260830205822 72 131 3.0 9.0 0.00 0.00 0.00 45 1017.7
20260830204817 71 129 4.0 11.0 0.00 0.00 0.00 48 1017.7
20260830203832 71 126 4.0 11.0 0.00 0.00 0.00 48 1017.8
20260830202808 71 137 3.0 11.0 0.00 0.00 0.00 48 1017.8
20260830201816 70 158 4.0 11.0 0.00 0.00 0.00 49 1018.1
20260830200820 69 135 4.0 10.0 0.00 0.00 0.00 49 1018.2
20260830195750 70 139 3.0 9.0 0.00 0.00 0.00 49 1018.2
20260830194752 70 148 3.0 8.0 0.00 0.00 0.00 50 1018.3
20260830193817 70 153 2.0 7.0 0.00 0.00 0.00 49 1018.4
20260830192750 70 153 1.0 6.0 0.00 0.00 0.00 47 1018.5
20260830191748 68 129 2.0 9.0 0.00 0.00 0.00 50 1018.7
20260830190732 68 143 3.0 9.0 0.00 0.00 0.00 53 1018.7
20260830185756 67 127 3.0 9.0 0.00 0.00 0.00 53 1018.8
20260830184734 67 136 4.0 10.0 0.00 0.00 0.00 53 1019.0
20260830183756 67 135 1.0 10.0 0.00 0.00 0.00 51 1019.2
20260830182740 66 146 2.0 15.0 0.00 0.00 0.00 53 1019.2
20260830181709 65 127 3.0 15.0 0.00 0.00 0.00 55 1019.2
20260830180646 65 114 3.0 10.0 0.00 0.00 0.00 56 1019.3
20260830174453 64 139 2.0 8.0 0.00 0.00 0.00 58 1019.2
20260830172308 62 143 2.0 9.0 0.00 0.00 0.00 60 1019.3
20260830171256 63 146 1.0 9.0 0.00 0.00 0.00 59 1019.4
20260830170241 62 129 2.0 9.0 0.00 0.00 0.00 61 1019.4
20260830165210 61 127 2.0 8.0 0.00 0.00 0.00 62 1019.4
20260830163028 60 160 2.0 8.0 0.00 0.00 0.00 63 1019.6
20260830155721 57 134 3.0 8.0 0.00 0.00 0.00 18 1020.1
20260830153557 55 129 3.0 9.0 0.00 0.00 0.00 1 1020.3
20260830152556 55 124 2.0 8.0 0.00 0.00 0.00 1 1020.3
20260830151602 54 137 2.0 6.0 0.00 0.00 0.00 1 1020.3
20260830150611 54 129 2.0 8.0 0.00 0.00 0.00 1 1020.2
20260830145548 53 127 1.0 8.0 0.00 0.00 0.00 1 1020.3
20260830144609 54 130 1.0 4.0 0.00 0.01 0.00 1 1020.3
20260830143544 53 131 1.0 5.0 0.00 0.01 0.00 1 1020.5
20260830142558 53 127 0.0 5.0 0.00 0.01 0.00 1 1020.4
20260830141603 53 132 0.0 4.0 0.00 0.01 0.00 1 1020.3
20260830135400 52 125 0.0 3.0 0.00 0.02 0.00 1 1020.1
20260830134407 52 136 0.0 3.0 0.00 0.02 0.00 1 1019.9
20260830133349 52 131 0.0 2.0 0.00 0.02 0.00 1 1019.9
20260830132353 52 124 0.0 0.0 0.00 0.02 0.00 1 1019.9
20260830131338 52 158 0.0 1.0 0.00 0.02 0.00 1 1019.7
20260830125251 52 139 1.0 7.0 0.00 0.02 0.00 1 1019.5
20260830124224 52 138 0.0 4.0 0.00 0.02 0.00 1 1019.6
20260830123203 52 129 0.0 0.0 0.00 0.02 0.00 1 1019.6
20260830122223 53 129 0.0 3.0 0.00 0.02 0.00 1 1019.6
20260830121154 53 132 0.0 2.0 0.00 0.02 0.00 1 1019.6
20260830120217 53 131 0.0 4.0 0.00 0.02 0.00 1 1019.6
20260830115237 53 130 0.0 1.0 0.00 0.02 0.00 1 1019.6
20260830114256 53 117 0.0 5.0 0.00 0.02 0.00 1 1019.5
20260830113225 53 132 0.0 4.0 0.00 0.02 0.00 1 1019.5
20260830112232 53 130 0.0 2.0 0.00 0.02 0.00 1 1019.5
20260830111242 53 157 0.0 2.0 0.00 0.02 0.00 1 1019.6
20260830110247 53 129 0.0 1.0 0.00 0.02 0.00 1 1019.5
20260830105312 53 143 0.0 0.0 0.00 0.02 0.00 1 1019.4
20260830104239 54 134 0.0 2.0 0.00 0.02 0.00 1 1019.5
20260830101005 54 123 0.0 0.0 0.00 0.02 0.00 34 1019.4
20260830100005 54 136 0.0 1.0 0.00 0.02 0.00 39 1019.2
20260830093905 55 143 0.0 3.0 0.00 0.02 0.00 48 1019.2
20260830092847 55 127 0.0 0.0 0.00 0.02 0.00 51 1019.2
20260830091852 56 148 1.0 6.0 0.00 0.02 0.00 55 1019.1
20260830090917 56 131 1.0 8.0 0.00 0.02 0.00 57 1019.0
20260830085859 56 142 2.0 8.0 0.00 0.02 0.00 56 1019.0
20260830084908 56 134 2.0 7.0 0.00 0.02 0.00 55 1019.0
20260830083856 56 133 3.0 7.0 0.00 0.02 0.00 55 1019.0
20260830082851 56 125 2.0 8.0 0.00 0.02 0.00 57 1019.0
20260830081855 56 161 2.0 10.0 0.00 0.02 0.00 58 1019.0
20260830080826 56 142 2.0 10.0 0.00 0.02 0.00 60 1019.0
20260830075849 56 142 2.0 6.0 0.00 0.02 0.00 62 1019.1
20260830071513 56 150 1.0 6.0 0.00 0.02 0.00 63 1019.1
20260830070533 56 142 0.0 5.0 0.00 0.02 0.00 63 1019.1
20260830065553 56 147 0.0 5.0 0.00 0.02 0.02 63 1019.2
20260830064536 56 141 0.0 2.0 0.00 0.02 0.02 62 1019.2
20260830062401 56 148 0.0 0.0 0.00 0.02 0.02 64 1019.3
20260830061406 57 143 0.0 3.0 0.00 0.02 0.02 64 1019.2
20260830060344 57 148 0.0 0.0 0.00 0.02 0.02 64 1019.3
20260830055332 57 146 0.0 3.0 0.00 0.02 0.02 64 1019.3
20260830053217 56 165 0.0 0.0 0.00 0.02 0.02 64 1019.3
20260830052235 57 162 0.0 0.0 0.00 0.02 0.02 64 1019.3
20260830051241 57 146 0.0 3.0 0.00 0.02 0.02 64 1019.2